Volver al catálogo

STARLINK-32532

ActivoComunicacionesVLEO
NORAD 62156·PAYLOAD·🇺🇸 United States

Lanzado Nov 30, 2024 desde Cape Canaveral Space Force Station

Loading…

Próximos Pases (próximas 24 horas)

TLE

ActualizadoSource: CelesTrak SupGP

Época: Sep 14, 2026, 22:30 UTC

1 62156C 24224T   26257.93798611 -.00044377  00000+0 -16072-2 0  2571
2 62156  43.0014 169.1936 0001317 267.6394 130.4532 15.27602755    17

Sigue STARLINK-32532 en tiempo real con AllMySat

Download on the App Store